Starlink 31335

operational
NORAD ID: 58969 Int'l Des: 2024-031 Owner: SPXS Country: US Constellation: starlink
LEOCIRCULAR

About Starlink 31335

Description loading...

Live Position

Loading 3D Globe...

Upcoming Passes

Altitude History

Altitude vs Time

uPlot chart will show altitude changes over time

Two-Line Element Set

1 58969U 24031E 25349.31674470 -.00001801 00000-0 -48674-4 0 9997
2 58969 53.1616 325.8781 0001232 110.6939 249.4194 15.30206050103652
Epoch: Dec 15, 2025 • Age: 27 hours

Current Status

Altitude 480.7 km
Velocity 7.63 km/s
Sub-Earth Point 52.28°N, 179.35°W
Launch Date Feb 15, 2024
Age 1.8 years
Type internet

Technical Details

Classification Payload
Mass 730.00 kg
Dry Mass 700.00 kg
Total Mass 730.00 kg
Length 0.30 m
Diameter 4.10 m
Span 29.00 m
Shape Box + pan
Manufacturer SPXS
Bus Type Starlink V2M
Phase Status In Orbit
Owner/State SPXS/US

Large Constellations

Loading constellations...